Location: Newark
(14.1000°N, 87.2167°W)
Time: 04:41:46
(UTC+00:00)

Hubble Space Telescope - Visible Passes

Search period start: 18 September 2021 00:00
Search period end: 28 September 2021 00:00
Orbit: 535 x 539 km, 28.5° (Epoch: 17 September)

Date Brightness Start Highest point End Pass type
(mag) Time Alt. Az. Time Alt. Az. Time Alt. Az.
18 Sep 3.2 01:41:27 10° NNW 01:42:43 16° NNW 01:42:43 16° NNW visible
19 Sep 2.8 01:30:14 10° NW 01:32:18 21° N 01:32:18 21° N visible
20 Sep 2.2 01:19:02 10° NW 01:21:56 28° N 01:21:56 28° N visible
21 Sep 1.5 01:07:52 10° NW 01:11:38 38° NNE 01:11:38 38° NNE visible
22 Sep 1.1 00:56:43 10° NW 01:00:43 49° NNE 01:01:23 44° ENE visible
23 Sep 0.7 00:45:38 10° WNW 00:49:43 67° NNE 00:51:14 36° E visible
24 Sep 0.7 00:34:34 10° WNW 00:38:42 89° SSW 00:41:10 23° ESE visible
25 Sep 1.0 00:23:35 10° WNW 00:27:39 65° SSW 00:31:10 14° SE visible
26 Sep 1.6 00:12:40 10° WNW 00:16:36 46° SSW 00:20:33 10° SE visible
27 Sep 2.3 00:01:50 10° W 00:05:33 33° SSW 00:09:16 10° SE visible
